DAILI

Last updated on Mon Jun 27 2022 00:02:05 GMT+0000 (Coordinated Universal Time)

1 51443U 98067TF 22177.23829601 .18374243 12627-4 60969-3 0 9994 2 51443 51.6150 272.4043 0006764 342.6355 17.4440 16.44281731 23631

Satellite not in orbit